TimeCDT,TemperatureF,Dew PointF,Humidity,Sea Level PressureIn,VisibilityMPH,Wind Direction,Wind SpeedMPH,Gust SpeedMPH,PrecipitationIn,Events,Conditions,WindDirDegrees,DateUTC
12:12 AM,44.6,41.0,87,29.71,5.0,NE,9.2,-,N/A,,Scattered Clouds,50,2014-04-13 05:12:00
12:32 AM,44.6,42.8,93,29.72,5.0,ENE,11.5,-,N/A,,Scattered Clouds,60,2014-04-13 05:32:00
12:53 AM,44.6,41.0,87,29.72,5.0,NE,11.5,-,N/A,,Clear,50,2014-04-13 05:53:00
1:12 AM,44.6,41.0,87,29.73,4.0,NE,9.2,-,N/A,,Clear,40,2014-04-13 06:12:00
1:32 AM,44.6,42.8,93,29.75,4.0,ENE,10.4,-,N/A,,Scattered Clouds,60,2014-04-13 06:32:00
1:52 AM,44.6,42.8,93,29.75,4.0,NE,11.5,-,N/A,,Mostly Cloudy,50,2014-04-13 06:52:00
2:13 AM,44.6,42.8,93,29.75,4.0,ENE,12.7,-,N/A,,Overcast,60,2014-04-13 07:13:00
2:32 AM,44.6,42.8,93,29.76,4.0,NNE,13.8,-,N/A,,Overcast,30,2014-04-13 07:32:00
2:52 AM,44.6,42.8,93,29.77,3.0,NE,9.2,-,N/A,,Overcast,40,2014-04-13 07:52:00
3:13 AM,44.6,42.8,93,29.77,3.0,NNE,9.2,-,N/A,,Overcast,30,2014-04-13 08:13:00
3:32 AM,44.6,42.8,93,29.77,3.0,NNE,11.5,-,N/A,,Overcast,20,2014-04-13 08:32:00
3:52 AM,44.6,41.0,87,29.77,3.0,NNE,12.7,-,N/A,,Overcast,20,2014-04-13 08:52:00
4:13 AM,44.6,41.0,87,29.77,3.0,North,12.7,-,N/A,,Overcast,10,2014-04-13 09:13:00
4:32 AM,44.6,41.0,87,29.77,3.0,North,11.5,19.6,N/A,,Overcast,0,2014-04-13 09:32:00
4:52 AM,44.6,41.0,87,29.77,3.0,North,16.1,-,N/A,,Overcast,350,2014-04-13 09:52:00
5:13 AM,44.6,41.0,87,29.76,5.0,North,16.1,25.3,N/A,,Overcast,0,2014-04-13 10:13:00
5:32 AM,44.6,41.0,87,29.77,5.0,North,18.4,24.2,N/A,,Overcast,0,2014-04-13 10:32:00
5:52 AM,42.8,41.0,93,29.78,5.0,North,15.0,27.6,N/A,,Overcast,0,2014-04-13 10:52:00
6:13 AM,42.8,39.2,87,29.80,5.0,North,17.3,27.6,N/A,,Overcast,0,2014-04-13 11:13:00
6:32 AM,42.8,39.2,87,29.80,5.0,North,18.4,24.2,N/A,,Overcast,0,2014-04-13 11:32:00
6:52 AM,42.8,39.2,87,29.80,5.0,North,16.1,26.5,N/A,,Overcast,0,2014-04-13 11:52:00
7:13 AM,42.8,39.2,87,29.81,4.0,North,16.1,23.0,N/A,,Overcast,0,2014-04-13 12:13:00
7:32 AM,42.8,39.2,87,29.80,4.0,North,18.4,25.3,N/A,,Overcast,350,2014-04-13 12:32:00
7:52 AM,42.8,39.2,87,29.81,2.0,North,20.7,29.9,N/A,,Overcast,0,2014-04-13 12:52:00
8:13 AM,42.8,37.4,81,29.81,2.5,North,19.6,27.6,N/A,,Overcast,350,2014-04-13 13:13:00
8:32 AM,39.2,35.6,87,29.81,2.5,North,18.4,26.5,N/A,,Overcast,350,2014-04-13 13:32:00
8:53 AM,37.4,33.8,87,29.83,7.0,North,17.3,27.6,N/A,,Overcast,350,2014-04-13 13:53:00
9:12 AM,37.4,33.8,87,-9999,10.0,North,21.9,31.1,N/A,,Overcast,350,2014-04-13 14:12:00
9:32 AM,35.6,32.0,87,29.77,10.0,North,25.3,31.1,N/A,,Overcast,0,2014-04-13 14:32:00
9:53 AM,35.6,32.0,87,29.80,10.0,North,17.3,32.2,N/A,,Overcast,0,2014-04-13 14:53:00
10:32 AM,35.6,32.0,87,29.86,10.0,North,16.1,31.1,N/A,,Overcast,350,2014-04-13 15:32:00
10:53 AM,35.6,32.0,87,29.87,10.0,North,19.6,27.6,N/A,,Overcast,0,2014-04-13 15:53:00
11:12 AM,33.8,30.2,87,29.87,10.0,North,16.1,26.5,N/A,,Overcast,0,2014-04-13 16:12:00
11:32 AM,35.6,32.0,87,29.87,10.0,North,23.0,32.2,N/A,,Overcast,0,2014-04-13 16:32:00
11:53 AM,35.6,30.2,81,29.87,10.0,North,21.9,27.6,N/A,,Overcast,0,2014-04-13 16:53:00
12:12 PM,33.8,30.2,87,29.87,10.0,North,20.7,27.6,N/A,,Overcast,0,2014-04-13 17:12:00
12:33 PM,33.8,30.2,87,29.88,10.0,North,18.4,29.9,N/A,,Overcast,0,2014-04-13 17:33:00
12:52 PM,33.8,30.2,87,29.88,10.0,North,23.0,33.4,N/A,,Overcast,0,2014-04-13 17:52:00
1:12 PM,35.6,30.2,81,29.88,10.0,North,23.0,32.2,N/A,,Overcast,0,2014-04-13 18:12:00
1:33 PM,33.8,30.2,87,29.87,10.0,North,20.7,29.9,N/A,,Overcast,0,2014-04-13 18:33:00
1:52 PM,33.8,30.2,87,29.87,10.0,North,17.3,27.6,N/A,,Overcast,0,2014-04-13 18:52:00
2:12 PM,33.8,30.2,87,29.88,10.0,North,20.7,31.1,N/A,,Overcast,0,2014-04-13 19:12:00
2:33 PM,33.8,28.4,81,29.87,10.0,North,15.0,27.6,N/A,,Overcast,350,2014-04-13 19:33:00
2:52 PM,33.8,28.4,81,29.85,10.0,North,19.6,26.5,N/A,,Overcast,0,2014-04-13 19:52:00
3:12 PM,33.8,28.4,81,29.84,10.0,North,19.6,27.6,N/A,,Overcast,350,2014-04-13 20:12:00
3:33 PM,33.8,30.2,87,29.83,3.0,North,19.6,33.4,N/A,Snow,Light Snow,350,2014-04-13 20:33:00
3:52 PM,35.6,30.2,81,29.83,10.0,North,24.2,32.2,N/A,Snow,Light Snow,0,2014-04-13 20:52:00
4:12 PM,35.6,28.4,75,29.82,10.0,North,26.5,35.7,N/A,,Overcast,0,2014-04-13 21:12:00
4:32 PM,33.8,28.4,81,29.81,10.0,North,25.3,34.5,N/A,,Overcast,0,2014-04-13 21:32:00
4:52 PM,33.8,28.4,81,29.81,10.0,North,25.3,35.7,N/A,,Overcast,0,2014-04-13 21:52:00
5:12 PM,35.6,28.4,75,29.82,10.0,North,21.9,33.4,N/A,,Overcast,0,2014-04-13 22:12:00
5:33 PM,35.6,28.4,75,29.84,10.0,North,21.9,31.1,N/A,,Overcast,0,2014-04-13 22:33:00
5:52 PM,35.6,26.6,70,29.85,10.0,North,19.6,28.8,N/A,,Overcast,350,2014-04-13 22:52:00
6:12 PM,35.6,26.6,70,29.86,10.0,North,17.3,26.5,N/A,,Overcast,350,2014-04-13 23:12:00
6:33 PM,35.6,26.6,70,29.85,10.0,North,16.1,31.1,N/A,,Overcast,350,2014-04-13 23:33:00
6:52 PM,35.6,26.6,70,29.84,10.0,North,20.7,27.6,N/A,,Overcast,350,2014-04-13 23:52:00
7:12 PM,35.6,26.6,70,29.83,10.0,North,23.0,31.1,N/A,,Overcast,0,2014-04-14 00:12:00
7:32 PM,35.6,26.6,70,29.83,10.0,North,20.7,34.5,N/A,,Overcast,350,2014-04-14 00:32:00
7:52 PM,35.6,26.6,70,29.83,10.0,North,17.3,32.2,N/A,,Overcast,350,2014-04-14 00:52:00
8:13 PM,35.6,26.6,70,29.83,10.0,North,19.6,32.2,N/A,,Overcast,350,2014-04-14 01:13:00
8:32 PM,33.8,26.6,75,29.85,10.0,North,17.3,26.5,N/A,,Overcast,350,2014-04-14 01:32:00
8:52 PM,33.8,26.6,75,29.86,10.0,North,16.1,24.2,N/A,,Overcast,350,2014-04-14 01:52:00
9:13 PM,32.0,24.8,75,29.86,10.0,North,17.3,29.9,N/A,,Overcast,350,2014-04-14 02:13:00
9:32 PM,32.0,24.8,75,29.87,10.0,North,19.6,24.2,N/A,,Overcast,350,2014-04-14 02:32:00
9:52 PM,32.0,24.8,75,29.88,10.0,North,18.4,28.8,N/A,,Overcast,350,2014-04-14 02:52:00
10:13 PM,32.0,23.0,69,29.90,10.0,North,19.6,31.1,N/A,,Overcast,350,2014-04-14 03:13:00
10:32 PM,32.0,23.0,69,29.91,10.0,NNW,23.0,34.5,N/A,,Overcast,340,2014-04-14 03:32:00
10:52 PM,32.0,23.0,69,29.92,10.0,NNW,25.3,34.5,N/A,,Overcast,340,2014-04-14 03:52:00
11:13 PM,32.0,23.0,69,29.93,10.0,NNW,24.2,42.6,N/A,,Overcast,340,2014-04-14 04:13:00
11:32 PM,32.0,23.0,69,29.93,10.0,NNW,24.2,40.3,N/A,,Overcast,340,2014-04-14 04:32:00
11:52 PM,32.0,23.0,69,29.94,10.0,NNW,23.0,39.1,N/A,,Overcast,340,2014-04-14 04:52:00